Date String (YYYY-MM-DD hh:mm:ss) UTC,Instrument flags,absolute air pressure of the measurement (hPa),sample flow rate (lpm),inlet stack bypass flow (lpm),air temperature of the measurement (°C),ambient temperature measured by the external sensor (°C),aerosol sample conditioner tube jacket temperature (°C),OPC LED temperature (°C),internal box temperature (°C),relative humidity of the measurement (%),span deviation,mass concentration of particles derived from Lorenz-Mie calculation of OPC scattering (μg/m³),mass concentration of particles derived from Lorenz-Mie calculation of OPC scattering (μg/m³),mass concentration of particles derived from Lorenz-Mie calculation of OPC scattering (μg/m³)
DateTimeUTC,F1_M11,P_M11,Q1_M11,Q2_M11,T1_M11,T2_M11,T3_M11,T4_M11,T5_M11,U1_M11,ZSPAN_M11,X2_M11,X0_M11,X1_M11
2023-09-02 11:00:00,SystemResetWarning,0832.7,5.01,000.00,028.1,023.9,000.0,036.4,029.1,24.8,0000.0,0004.14,0010.54,0003.42
2023-09-02 11:01:00,SystemResetWarning,0832.9,5.01,000.00,028.0,023.9,000.0,036.4,029.0,25.0,0000.0,0004.16,0009.93,0003.41
2023-09-02 11:02:00,SystemResetWarning,0832.8,4.99,000.00,027.9,024.3,000.0,036.4,029.0,25.1,0000.0,0004.17,0009.80,0003.41
2023-09-02 11:03:00,SystemResetWarning,0832.7,4.99,000.00,027.9,024.7,000.0,036.4,029.2,25.2,0000.0,0004.15,0010.22,0003.42
2023-09-02 11:04:00,SystemResetWarning,0832.7,5.00,000.00,027.9,025.2,000.0,036.4,029.3,25.2,0000.0,0004.17,0010.44,0003.42
2023-09-02 11:05:00,SystemResetWarning,0832.7,5.00,000.00,027.9,025.6,000.0,036.4,029.4,25.2,0000.0,0004.17,0010.93,0003.43
2023-09-02 11:06:00,SystemResetWarning,0832.8,5.01,000.00,027.9,025.9,000.0,036.4,029.4,25.2,0000.0,0004.20,0011.46,0003.43
2023-09-02 11:07:00,SystemResetWarning,0832.8,5.00,000.00,027.9,026.2,000.0,036.4,029.5,25.2,0000.0,0004.22,0011.84,0003.43
2023-09-02 11:08:00,SystemResetWarning,0832.8,5.00,000.00,027.9,026.4,000.0,036.4,029.6,25.2,0000.0,0004.19,0012.18,0003.42
2023-09-02 11:09:00,SystemResetWarning,0832.8,5.00,000.00,028.0,026.6,000.0,036.4,029.6,25.1,0000.0,0004.22,0011.49,0003.42
2023-09-02 11:10:00,SystemResetWarning,0833.0,5.00,000.00,028.0,026.8,000.0,036.4,029.7,25.2,0000.0,0004.21,0010.94,0003.43
2023-09-02 11:11:00,SystemResetWarning,0833.1,5.00,000.00,028.1,026.9,000.0,036.4,029.8,25.1,0000.0,0004.22,0010.88,0003.44
2023-09-02 11:12:00,SystemResetWarning,0833.4,5.00,000.00,028.1,027.0,000.0,036.5,029.8,25.1,0000.0,0004.22,0010.88,0003.44
2023-09-02 11:13:00,SystemResetWarning,0833.3,5.00,000.00,028.2,027.1,000.0,036.5,029.8,25.0,0000.0,0004.21,0010.66,0003.45
2023-09-02 11:14:00,SystemResetWarning,0833.1,5.00,000.00,028.2,027.2,000.0,036.5,029.9,25.0,0000.0,0004.21,0009.92,0003.45
2023-09-02 11:15:00,SystemResetWarning,0832.9,5.00,000.00,028.2,027.3,000.0,036.5,030.0,25.0,0000.0,0004.18,0009.71,0003.44
2023-09-02 11:16:00,SystemResetWarning,0832.9,4.99,000.00,028.3,027.4,000.0,036.6,030.0,24.8,0000.0,0004.22,0009.95,0003.44
2023-09-02 11:17:00,SystemResetWarning,0832.9,4.98,000.00,028.3,026.4,000.0,036.5,029.7,24.7,0000.0,0004.18,0009.46,0003.43
2023-09-02 11:18:00,SystemResetWarning,0833.4,5.01,000.00,028.2,025.0,000.0,036.5,029.3,24.8,0000.0,0004.15,0009.59,0003.43
2023-09-02 11:19:00,SystemResetWarning,0833.3,5.00,000.00,028.1,024.8,000.0,036.4,029.3,24.9,0000.0,0004.15,0009.43,0003.43
2023-09-02 11:20:00,SystemResetWarning,0833.3,5.01,000.00,028.0,025.0,000.0,036.4,029.3,25.1,0000.0,0004.13,0009.27,0003.43
2023-09-02 11:21:00,SystemResetWarning,0833.4,4.99,000.00,028.0,025.3,000.0,036.4,029.3,25.2,0000.0,0004.14,0009.30,0003.43
2023-09-02 11:22:00,SystemResetWarning,0833.2,5.00,000.00,028.0,025.7,000.0,036.4,029.4,25.4,0000.0,0004.11,0009.39,0003.42
2023-09-02 11:23:00,SystemResetWarning,0833.3,5.00,000.00,028.0,026.0,000.0,036.4,029.5,25.5,0000.0,0004.13,0010.26,0003.43
2023-09-02 11:24:00,SystemResetWarning,0833.0,4.99,000.00,028.0,026.3,000.0,036.5,029.6,25.6,0000.0,0004.15,0011.34,0003.44
2023-09-02 11:25:00,SystemResetWarning,0833.0,5.00,000.00,028.1,026.5,000.0,036.5,029.7,25.5,0000.0,0004.15,0011.86,0003.44
2023-09-02 11:26:00,SystemResetWarning,0833.0,5.00,000.00,028.1,026.7,000.0,036.5,029.7,25.1,0000.0,0004.16,0011.73,0003.44
2023-09-02 11:27:00,SystemResetWarning,0832.9,5.00,000.00,028.1,026.9,000.0,036.5,029.8,25.0,0000.0,0004.14,0011.47,0003.44
2023-09-02 11:28:00,SystemResetWarning,0833.0,5.01,000.00,028.2,027.0,000.0,036.5,029.9,25.1,0000.0,0004.13,0011.47,0003.44
2023-09-02 11:29:00,SystemResetWarning,0832.9,5.00,000.00,028.2,027.1,000.0,036.6,029.9,25.0,0000.0,0004.13,0011.25,0003.43
2023-09-02 11:30:00,SystemResetWarning,0833.0,5.00,000.00,028.3,027.2,000.0,036.6,030.0,24.9,0000.0,0004.15,0011.07,0003.43
2023-09-02 11:31:00,SystemResetWarning,0832.9,5.00,000.00,028.3,027.3,000.0,036.6,030.0,24.9,0000.0,0004.15,0011.10,0003.43
2023-09-02 11:32:00,SystemResetWarning,0832.9,5.00,000.00,028.3,027.4,000.0,036.6,030.0,24.9,0000.0,0004.14,0011.25,0003.43
2023-09-02 11:33:00,SystemResetWarning,0832.9,4.98,000.00,028.3,026.4,000.0,036.6,029.8,24.7,0000.0,0004.16,0011.81,0003.42
2023-09-02 11:34:00,SystemResetWarning,0832.9,5.01,000.00,028.2,025.0,000.0,036.5,029.4,25.0,0000.0,0004.15,0011.17,0003.42
2023-09-02 11:35:00,SystemResetWarning,0832.9,5.01,000.00,028.1,024.8,000.0,036.5,029.3,25.1,0000.0,0004.14,0010.36,0003.42
2023-09-02 11:36:00,SystemResetWarning,0832.9,4.99,000.00,028.1,025.0,000.0,036.5,029.3,25.1,0000.0,0004.14,0010.04,0003.42
2023-09-02 11:37:00,SystemResetWarning,0833.0,5.00,000.00,028.0,025.3,000.0,036.5,029.4,25.5,0000.0,0004.17,0010.04,0003.43
2023-09-02 11:38:00,SystemResetWarning,0832.9,5.01,000.00,028.0,025.7,000.0,036.5,029.5,25.5,0000.0,0004.18,0009.85,0003.44
2023-09-02 11:39:00,SystemResetWarning,0833.5,4.99,000.00,028.1,026.0,000.0,036.5,029.6,25.4,0000.0,0004.23,0009.77,0003.44
2023-09-02 11:40:00,SystemResetWarning,0833.1,5.00,000.00,028.1,026.3,000.0,036.5,029.6,25.1,0000.0,0004.26,0010.40,0003.45
2023-09-02 11:41:00,SystemResetWarning,0833.1,5.00,000.00,028.1,026.5,000.0,036.5,029.7,25.0,0000.0,0004.26,0010.90,0003.47
2023-09-02 11:42:00,SystemResetWarning,0833.0,5.00,000.00,028.1,026.7,000.0,036.5,029.8,25.0,0000.0,0004.31,0011.15,0003.48
2023-09-02 11:43:00,SystemResetWarning,0833.0,5.00,000.00,028.2,026.9,000.0,036.6,029.8,25.1,0000.0,0004.31,0011.21,0003.50
2023-09-02 11:44:00,SystemResetWarning,0833.0,5.00,000.00,028.2,027.0,000.0,036.6,029.9,25.3,0000.0,0004.35,0011.37,0003.51
2023-09-02 11:45:00,SystemResetWarning,0833.0,5.00,000.00,028.3,027.1,000.0,036.6,029.9,25.1,0000.0,0004.35,0011.56,0003.53
2023-09-02 11:46:00,SystemResetWarning,0833.0,5.00,000.00,028.3,027.2,000.0,036.6,030.0,24.9,0000.0,0004.35,0011.30,0003.54
2023-09-02 11:47:00,SystemResetWarning,0833.0,5.00,000.00,028.3,027.3,000.0,036.6,030.0,24.9,0000.0,0004.38,0010.95,0003.56
2023-09-02 11:48:00,SystemResetWarning,0833.2,4.98,000.00,028.3,026.2,000.0,036.6,029.7,24.8,0000.0,0004.37,0011.01,0003.56
2023-09-02 11:49:00,SystemResetWarning,0833.3,5.01,000.00,028.2,024.9,000.0,036.5,029.4,25.0,0000.0,0004.38,0011.35,0003.57
2023-09-02 11:50:00,SystemResetWarning,0833.5,5.01,000.00,028.1,024.7,000.0,036.5,029.3,25.0,0000.0,0004.36,0011.51,0003.58
2023-09-02 11:51:00,SystemResetWarning,0833.3,5.00,000.00,028.0,025.0,000.0,036.5,029.3,25.1,0000.0,0004.31,0011.00,0003.58
2023-09-02 11:52:00,SystemResetWarning,0833.0,5.00,000.00,028.0,025.3,000.0,036.5,029.4,25.2,0000.0,0004.33,0010.84,0003.58
2023-09-02 11:53:00,SystemResetWarning,0833.0,5.00,000.00,028.0,025.7,000.0,036.5,029.5,25.1,0000.0,0004.37,0011.04,0003.58
2023-09-02 11:54:00,SystemResetWarning,0833.0,5.00,000.00,028.0,026.0,000.0,036.5,029.6,25.1,0000.0,0004.37,0011.05,0003.58
2023-09-02 11:55:00,SystemResetWarning,0833.0,5.00,000.00,028.1,026.2,000.0,036.5,029.6,25.1,0000.0,0004.30,0010.75,0003.58
2023-09-02 11:56:00,SystemResetWarning,0833.0,5.00,000.00,028.1,026.5,000.0,036.5,029.7,25.2,0000.0,0004.27,0010.46,0003.57
2023-09-02 11:57:00,SystemResetWarning,0833.1,5.00,000.00,028.1,026.7,000.0,036.5,029.7,25.0,0000.0,0004.27,0010.39,0003.57
2023-09-02 11:58:00,SystemResetWarning,0833.0,4.99,000.00,028.2,026.8,000.0,036.6,029.8,24.9,0000.0,0004.25,0010.87,0003.56
2023-09-02 11:59:00,SystemResetWarning,0833.3,4.99,000.00,028.2,027.0,000.0,036.6,029.9,24.8,0000.0,0004.22,0011.49,0003.55
